Location: ????????
(55.6189°N, 38.3031°E)
Time: 07:58:33
(UTC+00:00)

Cosmos 2298 Rocket - Pass Details

Date: 15 November 2019
Orbit: 777 x 783 km, 74.0° (Epoch: 12 December)

Event Time Altitude Azimuth Distance (km) Brightness Sun altitude
Rises 04:06:36 0° 213° (SSW) 3,255 7.1 -7.6°
Reaches altitude 10° 04:09:00 10° 216° (SW) 2,330 6.4 -7.3°
Maximum altitude 04:14:17 71° 301° (WNW) 827 4.0 -6.6°
Drops below altitude 10° 04:19:36 10° 26° (NNE) 2,342 6.6 -5.9°
Sets 04:22:01 0° 28° (NNE) 3,273 7.3 -5.6°
